Hourly Data Report for October 03, 2017

All times are specified in Local Standard Time (LST). Add 1 hour to adjust for Daylight Saving Time where and when it is observed.

SARNIA
ONTARIO

42°59'58.000" N
82°18'32.000" W
181.40 m
6127510
71704
YZR

Download Data

Hourly Data (October 2017)
Hourly Data Report for October 3, 2017
Temp Definition
°C
Dew Point Temp Definition
°C
Rel Hum Definition
%
Wind Dir Definition
10's deg

Wind Spd Definition
km/h
Visibility Definition
km
Stn Press Definition
kPa
Hmdx Definition


Wind Chill Definition


Weather Definition


TIME
00:00 Legend Double Dagger 12.5 11.0 91 15 9 16.1 100.55     LegendNANA
01:00 Legend Double Dagger 12.0 10.8 92 14 11 16.1 100.56     LegendNANA
02:00 Legend Double Dagger 11.7 10.2 90 14 11 16.1 100.55     LegendNANA
03:00 Legend Double Dagger 12.0 10.8 92 15 8 16.1 100.56     LegendNANA
04:00 Legend Double Dagger 11.5 10.4 93 15 13 16.1 100.61     LegendNANA
05:00 Legend Double Dagger 11.2 10.3 94 16 9 16.1 100.64     LegendNANA
06:00 Legend Double Dagger 11.4 10.8 96 18 5 16.1 100.70     LegendNANA
07:00 Legend Double Dagger 12.0 11.2 95 17 9 16.1 100.74     LegendNANA
08:00 Legend Double Dagger 15.7 12.9 83 18 11 16.1 100.75     LegendNANA
09:00 Legend Double Dagger 18.9 13.6 71 18 13 16.1 100.78     LegendNANA
10:00 Legend Double Dagger 21.8 12.6 56 21 18 16.1 100.78     LegendNANA
11:00 Legend Double Dagger 24.3 12.0 46 19 18 16.1 100.73 27   LegendNANA
12:00 Legend Double Dagger 25.7 11.2 40 19 21 16.1 100.66 28   LegendNANA
13:00 Legend Double Dagger 26.5 11.1 38 19 22 16.1 100.58 28   LegendNANA
14:00 Legend Double Dagger 26.6 11.9 39 20 26 16.1 100.50 29   LegendNANA
15:00 Legend Double Dagger 26.7 12.4 41 19 32 16.1 100.46 29   LegendNANA
16:00 Legend Double Dagger 26.2 12.7 43 19 30 16.1 100.43 29   LegendNANA
17:00 Legend Double Dagger 26.1 11.3 39 20 22 16.1 100.44 28   LegendNANA
18:00 Legend Double Dagger 24.0 11.5 45 18 17 16.1 100.43 26   LegendNANA
19:00 Legend Double Dagger 22.5 11.9 51 17 15 16.1 100.44 25   LegendNANA
20:00 Legend Double Dagger 21.7 12.3 55 17 15 16.1 100.48     LegendNANA
21:00 Legend Double Dagger 21.1 12.9 59 17 17 16.1 100.46     LegendNANA
22:00 Legend Double Dagger 20.8 13.8 64 18 15 16.1 100.45     LegendNANA
23:00 Legend Double Dagger 21.4 14.9 66 18 15 16.1 100.41 25   LegendNANA

Notes on Data Quality.

Legend

  • E = Estimated
  • M = Missing
  • NA = Not Available
  • ‡ = Partner data that is not subject to review by the National Climate Archives
Date modified: